Terug naar catalogus

OPS 9444

DSCS 2-14

ActiefMilitairGEO
NORAD 11622·PAYLOAD·🇺🇸 United States

Gelanceerd Nov 21, 1979 vanaf Cape Canaveral Space Force Station

Loading…

TLE

VersSource: Space-Track

Epoch: Sep 14, 2026, 03:51 UTC

1 11622U 79098B   26257.16041713  .00000003  00000-0  00000-0 0  9993
2 11622   8.3090 305.1080 0001405  80.5819  90.5044  0.98349080112852

Volg OPS 9444 in realtime met AllMySat

Download on the App Store